Time,TemperatureF,DewpointF,PressureIn,WindDirection,WindDirectionDegrees,WindSpeedMPH,WindSpeedGustMPH,Humidity,HourlyPrecipIn,Conditions,Clouds,dailyrainin,SoftwareType,DateUTC
2013-11-23 00:00:00,22.6,19.0,30.74,ENE,69,3.0,5.0,84,0.00,,,0.00,weatherlink.com 1.10,2013-11-23 08:00:00,
2013-11-23 00:15:00,23.1,19.0,30.73,ENE,69,1.0,3.0,83,0.00,,,0.00,weatherlink.com 1.10,2013-11-23 08:15:00,
2013-11-23 00:30:00,22.7,18.0,30.73,East,80,1.0,5.0,83,0.00,,,0.00,weatherlink.com 1.10,2013-11-23 08:30:00,
2013-11-23 00:45:00,22.2,18.0,30.73,ENE,78,0.0,4.0,84,0.00,,,0.00,weatherlink.com 1.10,2013-11-23 08:45:00,
2013-11-23 01:00:00,22.4,18.0,30.72,East,86,2.0,3.0,84,0.00,,,0.00,weatherlink.com 1.10,2013-11-23 09:00:00,
2013-11-23 01:15:00,21.9,18.0,30.72,ENE,70,3.0,5.0,84,0.00,,,0.00,weatherlink.com 1.10,2013-11-23 09:15:00,
2013-11-23 01:30:00,21.7,18.0,30.71,ENE,73,4.0,5.0,85,0.00,,,0.00,weatherlink.com 1.10,2013-11-23 09:30:00,
2013-11-23 01:45:00,21.5,18.0,30.71,ENE,57,3.0,5.0,86,0.00,,,0.00,weatherlink.com 1.10,2013-11-23 09:45:00,
2013-11-23 01:59:00,21.0,18.0,30.71,ENE,65,4.0,5.0,87,0.00,,,0.00,weatherlink.com 1.10,2013-11-23 09:59:00,
2013-11-23 02:15:00,21.3,18.0,30.70,East,96,1.0,5.0,87,0.00,,,0.00,weatherlink.com 1.10,2013-11-23 10:15:00,
2013-11-23 02:30:00,20.6,18.0,30.70,ENE,78,4.0,6.0,89,0.00,,,0.00,weatherlink.com 1.10,2013-11-23 10:30:00,
2013-11-23 02:46:00,21.6,18.0,30.70,ENE,63,3.0,6.0,86,0.00,,,0.00,weatherlink.com 1.10,2013-11-23 10:46:00,
2013-11-23 03:00:00,20.7,17.0,30.70,ESE,121,1.0,5.0,87,0.00,,,0.00,weatherlink.com 1.10,2013-11-23 11:00:00,
2013-11-23 03:15:00,19.6,17.0,30.69,SE,134,0.0,2.0,89,0.00,,,0.00,weatherlink.com 1.10,2013-11-23 11:15:00,
2013-11-23 03:30:00,20.5,18.0,30.69,East,90,4.0,7.0,89,0.00,,,0.00,weatherlink.com 1.10,2013-11-23 11:30:00,
2013-11-23 03:45:00,20.6,18.0,30.69,SE,125,0.0,5.0,88,0.00,,,0.00,weatherlink.com 1.10,2013-11-23 11:45:00,
2013-11-23 04:00:00,20.4,18.0,30.68,East,82,3.0,3.0,89,0.00,,,0.00,weatherlink.com 1.10,2013-11-23 12:00:00,
2013-11-23 04:15:00,19.8,17.0,30.68,ESE,108,1.0,4.0,89,0.00,,,0.00,weatherlink.com 1.10,2013-11-23 12:15:00,
2013-11-23 04:30:00,19.8,17.0,30.68,ENE,67,6.0,6.0,90,0.00,,,0.00,weatherlink.com 1.10,2013-11-23 12:30:00,
2013-11-23 04:45:00,19.6,17.0,30.68,East,79,2.0,4.0,89,0.00,,,0.00,weatherlink.com 1.10,2013-11-23 12:45:00,
2013-11-23 05:00:00,19.3,17.0,30.68,ENE,71,3.0,5.0,90,0.00,,,0.00,weatherlink.com 1.10,2013-11-23 13:00:00,
2013-11-23 05:15:00,20.3,18.0,30.67,ENE,61,3.0,6.0,90,0.00,,,0.00,weatherlink.com 1.10,2013-11-23 13:15:00,
2013-11-23 05:31:00,20.2,18.0,30.67,East,96,4.0,7.0,89,0.00,,,0.00,weatherlink.com 1.10,2013-11-23 13:31:00,
2013-11-23 05:46:00,19.4,17.0,30.67,East,101,2.0,6.0,91,0.00,,,0.00,weatherlink.com 1.10,2013-11-23 13:46:00,
2013-11-23 06:01:00,19.7,18.0,30.67,East,96,3.0,7.0,91,0.00,,,0.00,weatherlink.com 1.10,2013-11-23 14:01:00,
2013-11-23 06:16:00,20.7,18.0,30.67,East,101,4.0,6.0,89,0.00,,,0.00,weatherlink.com 1.10,2013-11-23 14:16:00,
2013-11-23 06:31:00,21.1,18.0,30.66,East,84,3.0,8.0,88,0.00,,,0.00,weatherlink.com 1.10,2013-11-23 14:31:00,
2013-11-23 06:46:00,20.4,18.0,30.66,East,85,4.0,6.0,89,0.00,,,0.00,weatherlink.com 1.10,2013-11-23 14:46:00,
2013-11-23 07:01:00,20.2,17.0,30.66,ENE,77,3.0,6.0,88,0.00,,,0.00,weatherlink.com 1.10,2013-11-23 15:01:00,
2013-11-23 07:16:00,19.5,17.0,30.66,ESE,103,2.0,7.0,90,0.00,,,0.00,weatherlink.com 1.10,2013-11-23 15:16:00,
2013-11-23 07:31:00,19.5,17.0,30.66,ENE,65,3.0,6.0,91,0.00,,,0.00,weatherlink.com 1.10,2013-11-23 15:31:00,
2013-11-23 07:46:00,20.4,18.0,30.66,NE,51,7.0,10.0,91,0.00,,,0.00,weatherlink.com 1.10,2013-11-23 15:46:00,
2013-11-23 08:01:00,22.5,20.0,30.66,ENE,65,2.0,5.0,88,0.00,,,0.00,weatherlink.com 1.10,2013-11-23 16:01:00,
2013-11-23 08:16:00,22.9,20.0,30.66,SE,124,2.0,5.0,87,0.00,,,0.00,weatherlink.com 1.10,2013-11-23 16:16:00,
2013-11-23 08:31:00,23.4,20.0,30.66,NE,41,4.0,9.0,87,0.00,,,0.00,weatherlink.com 1.10,2013-11-23 16:31:00,
2013-11-23 08:46:00,23.8,20.0,30.66,East,82,4.0,7.0,86,0.00,,,0.00,weatherlink.com 1.10,2013-11-23 16:46:00,
2013-11-23 09:01:00,24.1,21.0,30.65,ENE,70,1.0,9.0,87,0.00,,,0.00,weatherlink.com 1.10,2013-11-23 17:01:00,
2013-11-23 09:16:00,24.9,21.0,30.65,ENE,68,1.0,6.0,86,0.00,,,0.00,weatherlink.com 1.10,2013-11-23 17:16:00,
2013-11-23 09:31:00,25.7,21.0,30.65,ENE,60,7.0,7.0,83,0.00,,,0.00,weatherlink.com 1.10,2013-11-23 17:31:00,
2013-11-23 09:46:00,26.0,22.0,30.64,NNE,32,2.0,8.0,83,0.00,,,0.00,weatherlink.com 1.10,2013-11-23 17:46:00,
2013-11-23 10:01:00,27.0,23.0,30.64,ENE,70,3.0,7.0,84,0.00,,,0.00,weatherlink.com 1.10,2013-11-23 18:01:00,
2013-11-23 10:16:00,27.5,22.0,30.64,ENE,66,4.0,8.0,81,0.00,,,0.00,weatherlink.com 1.10,2013-11-23 18:16:00,
2013-11-23 10:31:00,28.4,23.0,30.64,East,94,5.0,7.0,79,0.00,,,0.00,weatherlink.com 1.10,2013-11-23 18:31:00,
2013-11-23 10:46:00,28.9,23.0,30.62,ENE,62,4.0,7.0,77,0.00,,,0.00,weatherlink.com 1.10,2013-11-23 18:46:00,
2013-11-23 11:01:00,30.1,24.0,30.61,NE,55,4.0,6.0,77,0.00,,,0.00,weatherlink.com 1.10,2013-11-23 19:01:00,
2013-11-23 11:16:00,30.7,24.0,30.61,NE,42,6.0,8.0,75,0.00,,,0.00,weatherlink.com 1.10,2013-11-23 19:16:00,
2013-11-23 11:31:00,30.5,23.0,30.61,NE,50,5.0,8.0,73,0.00,,,0.00,weatherlink.com 1.10,2013-11-23 19:31:00,
2013-11-23 11:46:00,31.7,24.0,30.61,NE,41,5.0,7.0,73,0.00,,,0.00,weatherlink.com 1.10,2013-11-23 19:46:00,
2013-11-23 12:01:00,32.5,24.0,30.60,NE,44,4.0,5.0,70,0.00,,,0.00,weatherlink.com 1.10,2013-11-23 20:01:00,
2013-11-23 12:16:00,33.0,24.0,30.59,ESE,103,0.0,5.0,69,0.00,,,0.00,weatherlink.com 1.10,2013-11-23 20:16:00,
2013-11-23 12:32:00,34.6,24.0,30.58,SSE,163,2.0,6.0,65,0.00,,,0.00,weatherlink.com 1.10,2013-11-23 20:32:00,
2013-11-23 12:47:00,35.4,25.0,30.58,SE,145,2.0,3.0,65,0.00,,,0.00,weatherlink.com 1.10,2013-11-23 20:47:00,
2013-11-23 13:02:00,35.2,23.0,30.57,ENE,69,0.0,4.0,61,0.00,,,0.00,weatherlink.com 1.10,2013-11-23 21:02:00,
2013-11-23 13:17:00,36.1,24.0,30.56,SE,127,1.0,3.0,62,0.00,,,0.00,weatherlink.com 1.10,2013-11-23 21:17:00,
2013-11-23 13:32:00,36.8,24.0,30.55,SSE,155,2.0,4.0,60,0.00,,,0.00,weatherlink.com 1.10,2013-11-23 21:32:00,
2013-11-23 13:47:00,37.0,25.0,30.54,SE,126,2.0,4.0,63,0.00,,,0.00,weatherlink.com 1.10,2013-11-23 21:47:00,
2013-11-23 14:02:00,36.9,24.0,30.53,ESE,121,1.0,5.0,59,0.00,,,0.00,weatherlink.com 1.10,2013-11-23 22:02:00,
2013-11-23 14:17:00,36.9,24.0,30.53,ESE,111,2.0,4.0,61,0.00,,,0.00,weatherlink.com 1.10,2013-11-23 22:17:00,
2013-11-23 14:32:00,36.9,23.0,30.53,SE,131,2.0,3.0,58,0.00,,,0.00,weatherlink.com 1.10,2013-11-23 22:32:00,
2013-11-23 14:47:00,36.5,23.0,30.52,SE,131,1.0,3.0,59,0.00,,,0.00,weatherlink.com 1.10,2013-11-23 22:47:00,
2013-11-23 15:02:00,37.7,25.0,30.52,SSE,160,2.0,2.0,60,0.00,,,0.00,weatherlink.com 1.10,2013-11-23 23:02:00,
2013-11-23 15:17:00,37.5,25.0,30.52,SW,222,1.0,2.0,61,0.00,,,0.00,weatherlink.com 1.10,2013-11-23 23:17:00,
2013-11-23 15:32:00,36.9,25.0,30.52,WSW,250,1.0,2.0,63,0.00,,,0.00,weatherlink.com 1.10,2013-11-23 23:32:00,
2013-11-23 15:47:00,34.3,26.0,30.52,WSW,249,0.0,1.0,72,0.00,,,0.00,weatherlink.com 1.10,2013-11-23 23:47:00,
2013-11-23 16:02:00,32.0,25.0,30.51,WSW,249,0.0,1.0,76,0.00,,,0.00,weatherlink.com 1.10,2013-11-24 00:02:00,
2013-11-23 16:17:00,29.1,24.0,30.51,WSW,249,0.0,0.0,82,0.00,,,0.00,weatherlink.com 1.10,2013-11-24 00:17:00,
2013-11-23 16:32:00,26.6,23.0,30.51,SE,134,0.0,0.0,86,0.00,,,0.00,weatherlink.com 1.10,2013-11-24 00:32:00,
2013-11-23 16:47:00,25.9,23.0,30.50,SE,134,0.0,0.0,89,0.00,,,0.00,weatherlink.com 1.10,2013-11-24 00:47:00,
2013-11-23 17:02:00,25.5,23.0,30.50,SE,132,0.0,1.0,90,0.00,,,0.00,weatherlink.com 1.10,2013-11-24 01:02:00,
2013-11-23 17:17:00,23.6,21.0,30.50,ENE,77,0.0,1.0,90,0.00,,,0.00,weatherlink.com 1.10,2013-11-24 01:17:00,
2013-11-23 17:32:00,22.8,21.0,30.50,East,79,0.0,1.0,93,0.00,,,0.00,weatherlink.com 1.10,2013-11-24 01:32:00,
2013-11-23 17:47:00,22.2,20.0,30.50,East,79,0.0,0.0,92,0.00,,,0.00,weatherlink.com 1.10,2013-11-24 01:47:00,
2013-11-23 18:02:00,21.1,19.0,30.50,East,86,0.0,0.0,92,0.00,,,0.00,weatherlink.com 1.10,2013-11-24 02:02:00,
2013-11-23 18:17:00,20.4,19.0,30.50,East,86,0.0,0.0,94,0.00,,,0.00,weatherlink.com 1.10,2013-11-24 02:17:00,
2013-11-23 18:32:00,20.8,19.0,30.49,East,86,0.0,0.0,94,0.00,,,0.00,weatherlink.com 1.10,2013-11-24 02:32:00,
2013-11-23 18:47:00,19.4,18.0,30.49,NNE,14,0.0,1.0,94,0.00,,,0.00,weatherlink.com 1.10,2013-11-24 02:47:00,
2013-11-23 19:02:00,19.8,18.0,30.48,NNE,14,0.0,0.0,93,0.00,,,0.00,weatherlink.com 1.10,2013-11-24 03:02:00,
2013-11-23 19:17:00,19.9,18.0,30.48,SE,131,0.0,0.0,93,0.00,,,0.00,weatherlink.com 1.10,2013-11-24 03:17:00,
2013-11-23 19:32:00,17.3,15.0,30.48,SSW,203,0.0,0.0,92,0.00,,,0.00,weatherlink.com 1.10,2013-11-24 03:32:00,
2013-11-23 19:47:00,16.5,15.0,30.48,SSW,203,0.0,0.0,93,0.00,,,0.00,weatherlink.com 1.10,2013-11-24 03:47:00,
2013-11-23 20:02:00,16.8,15.0,30.47,SSW,203,0.0,0.0,94,0.00,,,0.00,weatherlink.com 1.10,2013-11-24 04:02:00,
2013-11-23 20:17:00,21.7,21.0,30.47,ENE,70,3.0,5.0,97,0.00,,,0.00,weatherlink.com 1.10,2013-11-24 04:17:00,
2013-11-23 20:32:00,24.8,22.0,30.47,NE,51,0.0,2.0,90,0.00,,,0.00,weatherlink.com 1.10,2013-11-24 04:32:00,
2013-11-23 20:47:00,24.4,21.0,30.46,East,90,2.0,3.0,88,0.00,,,0.00,weatherlink.com 1.10,2013-11-24 04:47:00,
2013-11-23 21:03:00,24.6,22.0,30.46,ENE,77,1.0,4.0,88,0.00,,,0.00,weatherlink.com 1.10,2013-11-24 05:03:00,
2013-11-23 21:18:00,24.2,21.0,30.45,East,83,0.0,4.0,88,0.00,,,0.00,weatherlink.com 1.10,2013-11-24 05:18:00,
2013-11-23 21:33:00,25.0,22.0,30.46,ENE,61,2.0,4.0,87,0.00,,,0.00,weatherlink.com 1.10,2013-11-24 05:33:00,
2013-11-23 21:48:00,25.0,22.0,30.47,NE,37,0.0,1.0,87,0.00,,,0.00,weatherlink.com 1.10,2013-11-24 05:48:00,
2013-11-23 22:03:00,25.1,22.0,30.46,ENE,65,2.0,3.0,87,0.00,,,0.00,weatherlink.com 1.10,2013-11-24 06:03:00,
2013-11-23 22:18:00,25.5,22.0,30.46,ENE,77,2.0,4.0,86,0.00,,,0.00,weatherlink.com 1.10,2013-11-24 06:18:00,
2013-11-23 22:33:00,25.4,22.0,30.46,ENE,78,3.0,5.0,87,0.00,,,0.00,weatherlink.com 1.10,2013-11-24 06:33:00,
2013-11-23 22:48:00,25.1,22.0,30.45,ENE,65,6.0,6.0,87,0.00,,,0.00,weatherlink.com 1.10,2013-11-24 06:48:00,
2013-11-23 23:03:00,25.3,22.0,30.45,ENE,66,2.0,6.0,87,0.00,,,0.00,weatherlink.com 1.10,2013-11-24 07:03:00,
2013-11-23 23:18:00,25.3,22.0,30.44,ENE,76,3.0,5.0,87,0.00,,,0.00,weatherlink.com 1.10,2013-11-24 07:18:00,
2013-11-23 23:33:00,25.6,22.0,30.43,NE,36,3.0,6.0,87,0.00,,,0.00,weatherlink.com 1.10,2013-11-24 07:33:00,
2013-11-23 23:48:00,25.2,22.0,30.43,East,101,2.0,4.0,88,0.00,,,0.00,weatherlink.com 1.10,2013-11-24 07:48:00,